033  
ASUS43 KGLD 241508  
RWRGLD  
 
GOODLAND FORECAST AREA HOURLY WEATHER ROUNDUP  
NATIONAL WEATHER SERVICE GOODLAND KS  
800 AM MST MON FEB 24 2020  
   
..OFFICIAL OBSERVATIONS
 
 
 
CITY SKY/WX TMP DP RH WIND PRES REMARKS
 
GOODLAND KS SUNNY 33 29 85 SW3 29.82S  
HILL CITY KS SUNNY 34 27 75 NW10 29.89R  
IMPERIAL NEB MOSUNNY 29 23 78 S5 29.82R  
MCCOOK NEB MOSUNNY 27 22 81 CALM 29.86R  
AKRON CO PTSUNNY 36 21 54 SW14G24 29.77S  
BURLINGTON CO SUNNY 32 26 78 SW12 29.82S  
LIMON CO MOSUNNY 26 22 84 CALM 29.82S  

 
   
..UNOFFICIAL OBSERVATIONS
 
 
 
CITY SKY/WX TMP DP RH WIND PRES REMARKS
 
COLBY KS MOSUNNY 30 28 93 CALM 29.85F  
SHARON SPRINGS N/A 31 28 89 CALM N/A  
YUMA CO FAIR 32 21 64 SW9 29.78S  

 
 
 
CLICK HERE TO GO TO PREVIOUS BULLETINS.

The Nexlab KS Page
The Nexlab CO Page
The Nexlab NE Page Main Text Page